K5NAN Weather Reports


time (UTC)temp
C
wind
direction
speed
KPH
gust
KPH
rain 1hr
cm
rain 24hr
cm
rain mn
cm
humidity
%
barometer
mb
20260509113130 20 86 0.0 1.6 0.00 0.00 0.00 96 1008.8
20260509112626 20 88 0.0 0.0 0.00 0.00 0.00 96 1008.6
20260509112124 20 88 0.0 0.0 0.00 0.00 0.00 96 1008.4
20260509111620 20 87 0.0 1.6 0.00 0.00 0.00 96 1008.4
20260509111117 20 114 0.0 0.0 0.00 0.00 0.00 96 1008.2
20260509110614 20 125 0.0 1.6 0.00 0.00 0.00 96 1008.4
20260509110112 20 169 3.2 3.2 0.00 0.00 0.00 96 1008.0
20260509105610 20 159 3.2 4.8 0.00 0.00 0.00 96 1008.0
20260509105107 20 141 3.2 6.4 0.00 0.00 0.00 96 1007.5
20260509104603 20 133 4.8 4.8 0.00 0.00 0.00 96 1007.6
20260509104100 20 129 1.6 3.2 0.00 0.00 0.00 96 1007.7
20260509103558 20 157 0.0 3.2 0.00 0.00 0.00 96 1007.5
20260509103056 20 157 0.0 3.2 0.00 0.00 0.00 96 1007.6
20260509102553 20 149 0.0 3.2 0.00 0.00 0.00 96 1007.8
20260509102050 20 89 0.0 0.0 0.00 0.00 0.00 96 1008.0
20260509101546 20 59 0.0 3.2 0.00 0.00 0.00 96 1007.7
20260509101043 20 355 0.0 3.2 0.00 0.00 0.00 96 1007.8
20260509100540 20 332 0.0 1.6 0.00 0.00 0.00 95 1007.8
20260509100038 20 350 3.2 3.2 0.00 0.00 0.00 96 1007.7
20260509095534 20 302 3.2 3.2 0.00 0.00 0.00 95 1007.8
20260509095032 20 337 3.2 3.2 0.00 0.00 0.00 95 1007.8
20260509094528 20 14 1.6 3.2 0.00 0.00 0.00 95 1007.6
20260509094025 20 41 6.4 6.4 0.00 0.00 0.00 95 1007.2
20260509093523 20 82 0.0 1.6 0.00 0.00 0.00 95 1007.1
20260509093021 20 32 3.2 6.4 0.00 0.00 0.00 95 1007.0
20260509092518 20 46 3.2 4.8 0.00 0.00 0.00 95 1006.9
20260509092017 20 24 1.6 4.8 0.00 0.00 0.00 95 1006.9
20260509091514 20 83 3.2 11.3 0.00 0.00 0.00 95 1006.6
20260509091010 20 82 4.8 9.7 0.00 0.00 0.00 95 1006.8
20260509090508 20 66 3.2 4.8 0.00 0.00 0.00 95 1006.8
20260509090006 20 75 1.6 4.8 0.00 0.00 0.00 95 1006.9
20260509085502 20 90 6.4 9.7 0.00 0.00 0.00 95 1007.2
20260509084958 20 64 4.8 6.4 0.00 0.00 0.00 95 1007.5
20260509084455 20 73 3.2 6.4 0.00 0.00 0.00 95 1007.5
20260509083952 20 117 4.8 9.7 0.00 0.00 0.00 95 1007.7
20260509083450 20 90 4.8 9.7 0.00 0.00 0.00 95 1007.7
20260509082946 20 72 1.6 4.8 0.00 0.00 0.00 95 1007.9
20260509082443 20 177 0.0 3.2 0.00 0.00 0.00 95 1007.9
20260509081941 20 163 1.6 4.8 0.00 0.00 0.00 95 1008.1
20260509081438 20 129 0.0 1.6 0.00 0.00 0.00 95 1008.2
20260509080935 20 162 0.0 1.6 0.00 0.00 0.00 95 1008.4
20260509080433 20 83 3.2 4.8 0.00 0.00 0.00 95 1008.6
20260509075931 20 112 3.2 4.8 0.00 0.00 0.00 95 1008.8
20260509075428 20 124 0.0 1.6 0.00 0.00 0.00 95 1008.9
20260509074926 20 103 1.6 3.2 0.00 0.00 0.00 95 1009.2
20260509074423 20 83 0.0 1.6 0.00 0.00 0.00 95 1009.5
20260509073919 20 39 0.0 3.2 0.00 0.00 0.00 95 1009.4
20260509073416 20 67 4.8 6.4 0.00 0.00 0.00 94 1009.5
20260509072912 20 16 3.2 4.8 0.00 0.00 0.00 94 1009.5
20260509072409 20 322 3.2 3.2 0.00 0.00 0.00 94 1009.7
20260509071905 20 85 0.0 1.6 0.00 0.00 0.00 94 1009.5
20260509071402 20 82 0.0 1.6 0.00 0.00 0.00 94 1009.4
20260509070900 20 34 1.6 3.2 0.00 0.00 0.00 94 1009.3
20260509070356 20 34 3.2 4.8 0.00 0.00 0.00 94 1009.4
20260509065852 20 52 3.2 3.2 0.00 0.00 0.00 94 1009.4
20260509065349 20 44 3.2 6.4 0.00 0.00 0.00 93 1009.4
20260509064844 20 25 3.2 4.8 0.00 0.00 0.00 93 1009.4
20260509064342 20 32 3.2 4.8 0.00 0.00 0.00 93 1009.3
20260509063840 20 60 1.6 3.2 0.00 0.00 0.00 93 1009.2
20260509063336 20 76 0.0 3.2 0.00 0.00 0.00 92 1008.9
20260509062833 20 119 0.0 0.0 0.00 0.00 0.00 92 1008.7
20260509062330 20 110 0.0 3.2 0.00 0.00 0.00 93 1008.8
20260509061827 20 161 1.6 4.8 0.00 0.00 0.00 93 1008.7
20260509061326 20 151 3.2 6.4 0.00 0.00 0.00 93 1008.8
20260509060822 20 161 6.4 6.4 0.00 0.00 0.00 93 1009.0
20260509060319 20 155 3.2 3.2 0.00 0.00 0.00 93 1009.1
20260509055814 20 169 4.8 4.8 0.00 0.00 0.00 93 1009.1
20260509055310 20 185 3.2 3.2 0.00 0.00 0.00 93 1009.4
20260509054807 20 142 3.2 4.8 0.00 0.00 0.00 93 1009.2
20260509054304 20 198 1.6 1.6 0.00 0.00 0.00 93 1009.2
20260509053802 20 202 0.0 0.0 0.00 0.00 0.00 93 1009.3
20260509053259 20 202 0.0 1.6 0.00 0.00 0.00 93 1009.4
20260509052757 20 212 1.6 3.2 0.00 0.00 0.00 93 1009.4
20260509052254 20 226 1.6 3.2 0.00 0.00 0.00 92 1009.5
20260509051752 20 207 1.6 4.8 0.00 0.00 0.00 92 1009.2
20260509051250 20 193 3.2 4.8 0.00 0.00 0.00 92 1008.9
20260509050746 20 22 0.0 0.0 0.00 0.00 0.00 92 1009.3
20260509050242 20 21 0.0 1.6 0.00 0.00 0.00 91 1009.4
20260509045740 20 36 0.0 1.6 0.00 0.30 0.30 91 1009.5
20260509045237 20 44 4.8 4.8 0.00 0.30 0.30 91 1009.5
20260509044734 20 36 3.2 4.8 0.00 0.30 0.30 91 1009.3
20260509044232 20 40 4.8 6.4 0.00 0.30 0.30 90 1009.2
20260509043728 20 52 4.8 11.3 0.00 0.30 0.30 90 1009.2
20260509043224 20 12 6.4 11.3 0.00 0.30 0.30 89 1008.6
20260509042720 20 146 3.2 4.8 0.00 0.30 0.30 89 1008.0
20260509042217 20 123 9.7 16.1 0.00 0.30 0.30 89 1007.8
20260509041714 20 156 11.3 16.1 0.00 0.30 0.30 89 1008.1
20260509041210 20 174 6.4 11.3 0.18 0.30 0.30 88 1008.4
20260509040709 20 164 9.7 12.9 0.18 0.30 0.30 88 1008.6
20260509040205 20 193 8.0 14.5 0.00 0.28 0.28 88 1008.6
20260509035702 20 151 9.7 12.9 0.00 0.28 0.28 89 1008.7
20260509035159 20 169 8.0 9.7 0.00 0.28 0.28 89 1009.1
20260509034656 20 327 0.0 0.0 0.00 0.28 0.28 88 1009.5
20260509034153 20 327 0.0 1.6 0.00 0.28 0.28 87 1009.5
20260509033650 20 326 1.6 3.2 0.30 0.28 0.28 87 1009.8
20260509033148 20 351 4.8 6.4 0.61 0.28 0.28 85 1009.3
20260509032645 21 337 3.2 4.8 0.30 0.23 0.23 83 1009.3
20260509032141 21 306 3.2 3.2 0.00 0.18 0.18 82 1009.2
20260509031639 21 182 0.0 0.0 0.00 0.18 0.18 82 1008.8
20260509031136 21 165 0.0 0.0 0.00 0.18 0.18 81 1008.6
20260509030635 21 53 0.0 0.0 0.00 0.18 0.18 81 1008.6
20260509030132 21 52 0.0 0.0 0.00 0.18 0.18 81 1008.8
20260509025627 21 58 0.0 0.0 0.00 0.18 0.18 81 1008.7
20260509025123 21 166 0.0 0.0 0.00 0.18 0.18 81 1008.7
20260509024619 21 167 0.0 0.0 0.00 0.18 0.18 80 1008.8
20260509024115 21 167 0.0 1.6 0.00 0.18 0.18 80 1008.6
20260509023613 21 167 0.0 0.0 0.00 0.18 0.18 80 1008.5
20260509023110 21 169 1.6 1.6 0.00 0.18 0.18 80 1008.3
20260509022606 21 163 1.6 1.6 0.00 0.18 0.18 80 1008.3
20260509022105 21 158 3.2 3.2 0.00 0.18 0.18 79 1008.2
20260509021601 21 157 3.2 4.8 0.00 0.18 0.18 79 1008.2
20260509021058 21 161 6.4 9.7 0.00 0.18 0.18 79 1008.1
20260509020556 21 154 6.4 6.4 0.00 0.18 0.18 78 1008.0
20260509020053 21 153 3.2 3.2 0.00 0.18 0.18 78 1008.0
20260509015552 21 163 0.0 1.6 0.00 0.18 0.18 78 1008.0
20260509015049 21 156 1.6 1.6 0.00 0.18 0.18 77 1007.8
20260509014545 21 169 0.0 1.6 0.00 0.18 0.18 77 1007.8
20260509014042 21 159 1.6 3.2 0.00 0.18 0.18 77 1007.7
20260509013539 21 160 3.2 6.4 0.00 0.18 0.18 77 1007.7
20260509013034 21 166 1.6 4.8 0.00 0.18 0.18 76 1007.7
20260509012531 21 169 1.6 1.6 0.00 0.18 0.18 76 1007.7
20260509012028 21 176 1.6 4.8 0.00 0.18 0.18 75 1007.6
20260509011526 22 155 1.6 4.8 0.00 0.18 0.18 75 1007.6
20260509011023 22 151 3.2 4.8 0.00 0.18 0.18 74 1007.5
20260509010521 22 175 4.8 6.4 0.00 0.18 0.18 74 1007.5
20260509010017 22 158 4.8 4.8 0.00 0.18 0.18 74 1007.5
20260509005515 22 152 4.8 6.4 0.00 0.18 0.18 73 1007.2
20260509005015 22 154 6.4 11.3 0.00 0.18 0.18 73 1007.0
20260509004512 22 157 11.3 14.5 0.00 0.18 0.18 72 1007.3
20260509004009 22 142 8.0 12.9 0.00 0.18 0.18 71 1006.9
20260509003508 22 162 6.4 11.3 0.00 0.18 0.18 71 1006.9
20260509003004 22 111 6.4 11.3 0.00 0.18 0.18 70 1007.1
20260508223948 25 175 9.7 12.9 0.00 0.18 0.18 64 1007.5
20260508223445 25 175 9.7 12.9 0.00 0.18 0.18 64 1007.5
20260508222942 25 182 9.7 12.9 0.00 0.18 0.18 64 1007.5
20260508222440 25 193 6.4 11.3 0.00 0.18 0.18 65 1007.3
20260508221936 25 158 8.0 11.3 0.00 0.18 0.18 64 1007.1
20260508221432 25 213 1.6 12.9 0.00 0.18 0.18 64 1007.3
20260508220929 25 174 3.2 9.7 0.00 0.18 0.18 65 1007.2
20260508220425 25 142 6.4 9.7 0.00 0.18 0.18 64 1006.8
20260508215921 24 142 8.0 11.3 0.00 0.18 0.18 65 1006.8
20260508215419 24 131 8.0 17.7 0.00 0.18 0.18 64 1006.9
20260508214915 25 169 11.3 14.5 0.00 0.18 0.18 65 1006.9
20260508214413 24 175 9.7 16.1 0.00 0.18 0.18 66 1007.2
20260508213909 24 164 14.5 16.1 0.00 0.18 0.18 65 1007.7
20260508213406 23 148 12.9 14.5 0.00 0.18 0.18 67 1008.0
20260508212902 23 157 8.0 11.3 0.00 0.18 0.18 68 1008.0
20260508212358 23 163 11.3 17.7 0.00 0.18 0.18 67 1008.3
20260508211854 23 183 11.3 17.7 0.00 0.18 0.18 67 1008.2
20260508211350 23 172 8.0 12.9 0.00 0.18 0.18 67 1008.5
20260508210848 23 174 8.0 16.1 0.00 0.18 0.18 66 1008.5
20260508210344 23 152 11.3 14.5 0.00 0.18 0.18 66 1008.7
20260508205841 23 158 8.0 14.5 0.00 0.18 0.18 67 1008.8
20260508205337 23 201 12.9 14.5 0.00 0.18 0.18 65 1008.7
20260508204833 23 161 6.4 12.9 0.00 0.18 0.18 65 1008.8
20260508204331 23 162 9.7 12.9 0.00 0.18 0.18 65 1009.1
20260508203827 23 172 6.4 11.3 0.00 0.18 0.18 65 1008.8
20260508203323 24 158 8.0 12.9 0.00 0.18 0.18 62 1009.0
20260508202818 24 175 9.7 16.1 0.00 0.18 0.18 62 1009.0
20260508202316 25 184 6.4 12.9 0.00 0.18 0.18 62 1009.0
20260508201814 25 183 11.3 14.5 0.00 0.18 0.18 61 1009.1
20260508201310 25 167 9.7 14.5 0.00 0.18 0.18 60 1008.8
20260508200807 25 201 9.7 12.9 0.00 0.18 0.18 62 1009.0
20260508200303 25 158 1.6 12.9 0.00 0.18 0.18 62 1009.1
20260508195759 25 139 3.2 4.8 0.00 0.18 0.18 63 1009.1
20260508195256 25 161 8.0 14.5 0.00 0.18 0.18 62 1009.3
20260508194752 25 127 6.4 11.3 0.00 0.18 0.18 61 1009.2
20260508194249 24 171 3.2 3.2 0.00 0.18 0.18 64 1009.5
20260508193747 24 204 3.2 3.2 0.00 0.18 0.18 63 1009.5
20260508193243 23 198 3.2 6.4 0.00 0.18 0.18 64 1009.5
20260508192739 24 184 8.0 12.9 0.00 0.18 0.18 62 1009.6
20260508192237 24 142 4.8 11.3 0.00 0.18 0.18 61 1009.7
20260508191734 23 155 8.0 12.9 0.00 0.18 0.18 63 1009.7
20260508191231 24 144 6.4 9.7 0.00 0.18 0.18 62 1009.6
20260508190728 24 196 11.3 12.9 0.00 0.18 0.18 64 1009.8
20260508190224 24 172 9.7 12.9 0.00 0.18 0.18 62 1009.8
20260508185721 24 155 6.4 9.7 0.00 0.18 0.18 62 1009.7
20260508185218 25 159 6.4 9.7 0.00 0.18 0.18 61 1009.7
20260508184715 25 187 8.0 14.5 0.00 0.18 0.18 61 1009.7
20260508184213 24 209 1.6 3.2 0.00 0.18 0.18 61 1009.9
20260508183709 24 198 1.6 11.3 0.00 0.18 0.18 62 1010.1
20260508183205 24 113 4.8 9.7 0.00 0.18 0.18 60 1010.2
20260508182701 24 84 3.2 6.4 0.00 0.18 0.18 63 1010.2
20260508182158 23 236 1.6 3.2 0.00 0.18 0.18 63 1010.0
20260508181654 23 200 3.2 4.8 0.00 0.18 0.18 63 1010.5
20260508181151 23 139 8.0 11.3 0.00 0.18 0.18 65 1010.4
20260508180648 23 193 4.8 6.4 0.00 0.18 0.18 62 1010.6
20260508180145 23 157 3.2 11.3 0.00 0.18 0.18 62 1010.8
20260508175641 23 140 6.4 14.5 0.00 0.18 0.18 62 1010.7
20260508175138 23 165 3.2 11.3 0.00 0.18 0.18 61 1010.9
20260508174636 23 179 1.6 4.8 0.00 0.18 0.18 62 1011.0
20260508174132 23 162 4.8 11.3 0.00 0.18 0.18 65 1011.0
20260508173629 22 153 1.6 9.7 0.00 0.18 0.18 65 1011.1
20260508173125 23 178 6.4 11.3 0.00 0.18 0.18 63 1011.2
20260508172623 22 151 4.8 6.4 0.00 0.18 0.18 66 1011.5
20260508172119 21 142 9.7 12.9 0.00 0.18 0.18 66 1011.4
20260508171616 22 158 8.0 11.3 0.00 0.18 0.18 65 1011.6
20260508171112 22 139 4.8 14.5 0.00 0.18 0.18 65 1012.0
20260508170610 22 195 4.8 14.5 0.00 0.18 0.18 65 1011.9
20260508170107 21 150 6.4 14.5 0.00 0.18 0.18 66 1012.3
20260508165603 21 172 9.7 14.5 0.00 0.18 0.18 66 1012.1
20260508165101 22 176 11.3 14.5 0.00 0.18 0.18 66 1012.2
20260508164557 21 172 6.4 12.9 0.00 0.18 0.18 67 1012.3
20260508164053 21 216 14.5 20.9 0.00 0.18 0.18 66 1012.4
20260508163551 21 183 12.9 22.5 0.00 0.18 0.18 65 1012.3
20260508163048 22 190 12.9 16.1 0.00 0.18 0.18 64 1012.6
20260508162545 21 171 11.3 16.1 0.00 0.18 0.18 66 1012.6
20260508162042 21 157 9.7 16.1 0.00 0.18 0.18 68 1012.4
20260508161538 21 180 9.7 12.9 0.00 0.18 0.18 68 1012.6
20260508161036 21 190 9.7 17.7 0.00 0.18 0.18 66 1012.9
20260508160534 21 154 14.5 16.1 0.00 0.18 0.18 68 1012.8
20260508160031 21 213 6.4 16.1 0.00 0.18 0.18 68 1012.7
20260508155528 21 157 12.9 17.7 0.00 0.18 0.18 68 1012.7
20260508155025 21 131 11.3 16.1 0.00 0.18 0.18 69 1012.6
20260508154522 20 161 6.4 12.9 0.00 0.18 0.18 70 1012.7
20260508154019 20 203 6.4 9.7 0.00 0.18 0.18 71 1012.9
20260508153516 20 169 9.7 11.3 0.00 0.18 0.18 72 1012.9
20260508153012 20 165 8.0 11.3 0.00 0.18 0.18 73 1012.8
20260508152509 21 182 6.4 11.3 0.00 0.18 0.18 73 1012.9
20260508152005 20 86 4.8 9.7 0.00 0.18 0.18 74 1012.9
20260508151502 20 133 4.8 6.4 0.00 0.18 0.18 74 1013.0
20260508150958 20 130 4.8 11.3 0.00 0.18 0.18 75 1012.8
20260508150455 19 169 0.0 3.2 0.00 0.18 0.18 78 1012.6
20260508145950 19 148 0.0 3.2 0.00 0.18 0.18 78 1012.9
20260508145448 18 156 1.6 3.2 0.00 0.18 0.18 79 1013.1
20260508144944 18 78 4.8 9.7 0.00 0.18 0.18 78 1013.0
20260508144442 18 140 6.4 6.4 0.00 0.18 0.18 79 1012.9
20260508143939 18 103 3.2 6.4 0.00 0.18 0.18 81 1013.0
20260508143437 18 164 0.0 4.8 0.00 0.18 0.18 83 1013.3
20260508142933 18 83 1.6 3.2 0.00 0.18 0.18 86 1013.3
20260508142430 17 165 1.6 3.2 0.00 0.18 0.18 87 1013.4
20260508141927 17 161 4.8 4.8 0.00 0.18 0.18 87 1013.3
20260508141423 17 137 3.2 6.4 0.00 0.18 0.18 88 1013.6
20260508140921 17 128 6.4 6.4 0.00 0.18 0.18 89 1013.5
20260508140418 16 122 4.8 6.4 0.00 0.18 0.18 91 1013.0
20260508135913 16 136 4.8 6.4 0.00 0.18 0.18 92 1013.5
20260508135410 16 166 3.2 4.8 0.00 0.18 0.18 93 1013.5
20260508134907 16 191 0.0 4.8 0.00 0.18 0.18 94 1013.4
20260508134403 15 187 1.6 4.8 0.00 0.18 0.18 94 1013.0
20260508133900 15 156 4.8 4.8 0.00 0.18 0.18 95 1013.1
20260508133358 15 151 0.0 1.6 0.00 0.18 0.18 95 1013.5
20260508132854 15 170 1.6 3.2 0.00 0.18 0.18 95 1013.6
20260508132353 15 156 0.0 0.0 0.00 0.18 0.18 95 1013.5
20260508131849 15 132 1.6 3.2 0.00 0.18 0.18 95 1013.5
20260508131344 15 101 0.0 4.8 0.00 0.18 0.18 95 1013.5
20260508130841 15 130 1.6 1.6 0.00 0.18 0.18 95 1013.5
20260508130338 15 113 0.0 0.0 0.00 0.18 0.18 95 1013.7
20260508125834 15 113 0.0 0.0 0.00 0.18 0.18 95 1013.9
20260508125330 15 112 0.0 0.0 0.00 0.18 0.18 95 1013.9
20260508124828 15 114 0.0 0.0 0.00 0.18 0.18 95 1013.8
20260508124325 15 113 0.0 0.0 0.00 0.18 0.18 95 1013.8
20260508123824 15 130 0.0 0.0 0.00 0.18 0.18 95 1013.9
20260508123322 15 106 0.0 0.0 0.00 0.18 0.18 95 1013.8
20260508122818 14 171 0.0 0.0 0.00 0.18 0.18 95 1013.9
20260508122315 14 174 0.0 0.0 0.00 0.18 0.18 95 1014.2
20260508121812 14 171 0.0 0.0 0.00 0.18 0.18 95 1013.9
20260508121311 14 155 0.0 0.0 0.00 0.18 0.18 95 1013.5
20260508120807 14 91 0.0 0.0 0.00 0.18 0.18 95 1013.5
20260508120305 14 175 0.0 0.0 0.00 0.18 0.18 94 1013.8
20260508115803 14 180 0.0 0.0 0.00 0.18 0.18 94 1013.6
20260508115300 14 180 0.0 0.0 0.00 0.18 0.18 94 1013.7
20260508114756 14 157 0.0 1.6 0.00 0.18 0.18 94 1013.6
20260508114253 14 162 0.0 0.0 0.00 0.18 0.18 94 1013.5
20260508113749 14 173 0.0 0.0 0.13 0.18 0.18 94 1013.9
20260508113248 14 177 0.0 0.0 0.13 0.18 0.18 94 1013.5